User: anonymous   Login
Location: Gorze? G�rny
(49.8500°N, 19.5000°E)
Time: 00:07:23
(UTC+00:00)
Language:

Sich 1 Rocket - Orbit

View from above orbital plane
View from above orbital plane
View from above satellite
View from above satellite

Ground track
Ground track

The orbit data is extracted from the following two-line orbital elements,

1 23659U 95046C   21217.43214008  .00000065  00000-0  57720-5 0  9991
2 23659  82.5326 344.0196 0024963 336.7131  86.6693 14.78382229397359
Epoch (UTC): 05 August 2021 10:22:16
Eccentricity: 0.0024963
inclination: 82.5326°
perigee height: 617 km
apogee height: 652 km
right ascension of ascending node: 344.0196°
argument of perigee: 336.7131°
revolutions per day: 14.78382229
mean anomaly at epoch: 86.6693°
orbit number at epoch: 39735

The dashed part of the orbit path shows where the satellite is in the earth's shadow,  

DLR